Butler, PA

9:27 AM EDT on October 21, 2019 (GMT -0400)
Butler County-Scholter

Weather History for KBTP - June, 2019

Change the Weather History Date:

Monday, June 10, 2019

  Actual Average Record
Temperature  
Mean Temperature 66 °F -  
Max Temperature 75 °F 73 °F 90 °F (1979)
Min Temperature 55 °F 55 °F 36 °F (1988)
Cooling Degree Days 1    
Growing Degree Days 16 (Base 50)    
Moisture  
Dew Point 63 °F    
Average Humidity 88    
Maximum Humidity 100    
Minimum Humidity 70    
Precipitation  
Precipitation 0.03 in - - ()
Sea Level Pressure  
Sea Level Pressure 29.94 in    
Wind  
Wind Speed 8 mph (SW)    
Max Wind Speed 13 mph    
Max Gust Speed 22 mph    
Visibility 8 miles    
Events Rain , Thunderstorm    
Averages and records for this station are not official NWS values.
T = Trace of Precipitation, MM = Missing Value Source: NWS Daily Summary

Daily Weather History Graph

Daily Weather History Graph

Search for Another Location

Airport or City:

Astronomy

Jun. 10, 2019 Rise Set
Actual Time 5:48 AM EDT 8:50 PM EDT
Civil Twilight 5:14 AM EDT 9:23 PM EDT
Nautical Twilight 4:32 AM EDT 10:06 PM EDT
Astronomical Twilight 3:43 AM EDT 10:55 PM EDT
Moon 1:36 PM EDT (6/10) 2:02 AM EDT (6/10)
Length of Visible Light 16h 08m
Length of Day
15h 02m
First Quarter, 55% of the Moon is Illuminated
Jun 10
First Quarter
Jun 17
Full
Jun 25
Last Quarter
Jul 2
New
Jul 9
First Quarter

Hourly Weather History & Observations

Time (EDT) Temp. Dew Point Humidity Pressure Visibility Wind Dir Wind Speed Gust Speed Precip Events Conditions
12:56 AM 68.0 °F 57.9 °F 70% 30.08 in 10.0 mi SE 9.2 mph - N/A   Overcast
1:56 AM 64.0 °F 60.1 °F 87% 30.07 in 10.0 mi ESE 5.8 mph - 0.00 in Rain Light Rain
2:56 AM 62.1 °F 60.1 °F 93% 30.05 in 10.0 mi East 6.9 mph - 0.01 in Rain Light Rain
3:56 AM 62.1 °F 60.1 °F 93% 30.03 in 10.0 mi East 8.1 mph - 0.00 in Rain Light Rain
4:56 AM 61.0 °F 59.0 °F 93% 30.02 in 10.0 mi East 9.2 mph - 0.00 in   Overcast
5:56 AM 61.0 °F 57.9 °F 90% 30.01 in 10.0 mi East 10.4 mph - N/A   Overcast
6:56 AM 61.0 °F 59.0 °F 93% 30.01 in 10.0 mi East 8.1 mph - N/A   Mostly Cloudy
7:56 AM 63.0 °F 59.0 °F 87% 30.00 in 10.0 mi ESE 9.2 mph - N/A   Clear
8:56 AM 64.0 °F 60.1 °F 87% 29.99 in 10.0 mi ESE 8.1 mph - N/A   Mostly Cloudy
9:56 AM 66.0 °F 61.0 °F 84% 29.97 in 10.0 mi ESE 6.9 mph - N/A   Mostly Cloudy
10:56 AM 70.0 °F 63.0 °F 78% 29.95 in 10.0 mi Variable 5.8 mph - N/A   Scattered Clouds
11:56 AM 71.1 °F 64.0 °F 78% 29.94 in 10.0 mi ESE 6.9 mph - N/A   Partly Cloudy
12:56 PM 73.9 °F 64.9 °F 73% 29.91 in 10.0 mi SSE 8.1 mph - N/A   Partly Cloudy
1:17 PM 75.2 °F 66.2 °F 73% 29.91 in 10.0 mi South 5.8 mph - N/A   Mostly Cloudy
1:56 PM 75.0 °F 66.0 °F 73% 29.88 in 10.0 mi Variable 4.6 mph - N/A   Overcast
2:13 PM 75.2 °F 66.2 °F 73% 29.88 in 10.0 mi Variable 4.6 mph - N/A   Overcast
2:39 PM 75.2 °F 66.2 °F 73% 29.87 in 10.0 mi Variable 3.5 mph - N/A   Overcast
2:56 PM 75.9 °F 66.9 °F 74% 29.86 in 10.0 mi South 4.6 mph - N/A   Overcast
3:56 PM 75.9 °F 68.0 °F 76% 29.84 in 10.0 mi Variable 4.6 mph - 0.00 in   Overcast
4:29 PM 73.4 °F 69.8 °F 88% 29.83 in 10.0 mi SE 4.6 mph - 0.00 in   Overcast
4:56 PM 75.0 °F 69.1 °F 82% 29.82 in 10.0 mi Variable 4.6 mph - 0.00 in   Mostly Cloudy
5:03 PM 75.2 °F 69.8 °F 83% 29.83 in 10.0 mi SSW 5.8 mph - N/A Thunderstorm Mostly Cloudy
5:15 PM 71.6 °F 69.8 °F 94% 29.84 in 1.8 mi WSW 12.7 mph - 0.00 in Rain , Thunderstorm Heavy Thunderstorms and Rain
5:22 PM 71.6 °F 69.8 °F 94% 29.85 in 1.5 mi WSW 11.5 mph - N/A Rain , Thunderstorm Heavy Thunderstorms and Rain
5:29 PM 69.8 °F 68.0 °F 94% 29.85 in 1.8 mi WSW 9.2 mph 17.3 mph N/A Rain , Thunderstorm Heavy Thunderstorms and Rain
5:35 PM 69.8 °F 66.2 °F 88% 29.84 in 3.0 mi WSW 10.4 mph 17.3 mph N/A Rain , Thunderstorm Heavy Thunderstorms and Rain
5:56 PM 68.0 °F 66.9 °F 96% 29.86 in 5.0 mi WSW 6.9 mph - N/A Rain , Thunderstorm Heavy Thunderstorms and Rain
6:02 PM 68.0 °F 66.2 °F 94% 29.86 in 3.0 mi WNW 6.9 mph - 0.00 in Rain , Thunderstorm Heavy Thunderstorms and Rain
6:06 PM 68.0 °F 66.2 °F 94% 29.86 in 3.0 mi West 12.7 mph 16.1 mph N/A Rain Heavy Rain
6:16 PM 68.0 °F 66.2 °F 94% 29.87 in 8.0 mi West 9.2 mph 18.4 mph N/A Rain Rain
6:26 PM 66.2 °F 64.4 °F 94% 29.87 in 8.0 mi WNW 11.5 mph 21.9 mph N/A Rain Rain
6:56 PM 66.0 °F 64.0 °F 93% 29.90 in 9.0 mi WNW 8.1 mph - N/A Rain Light Rain
7:20 PM 64.4 °F 64.4 °F 100% 29.90 in 5.0 mi Variable 6.9 mph - N/A Rain Rain
7:56 PM 64.0 °F 63.0 °F 96% 29.93 in 10.0 mi WNW 8.1 mph - N/A Rain Light Rain
8:28 PM 64.4 °F 62.6 °F 94% 29.94 in 10.0 mi Variable 6.9 mph - N/A   Overcast
8:56 PM 64.0 °F 62.1 °F 93% 29.97 in 9.0 mi WNW 6.9 mph - N/A Rain Light Rain
9:36 PM 62.6 °F 60.8 °F 94% 29.99 in 10.0 mi WNW 9.2 mph 21.9 mph 0.00 in Rain Light Rain
9:56 PM 60.1 °F 59.0 °F 96% 30.02 in 4.0 mi NW 11.5 mph 19.6 mph 0.01 in Rain Light Rain
10:16 PM 57.2 °F 55.4 °F 94% 30.02 in 10.0 mi NW 9.2 mph 16.1 mph 0.00 in   Overcast
10:56 PM 57.0 °F 55.9 °F 96% 30.05 in 8.0 mi Variable 5.8 mph - 0.00 in   Overcast
11:31 PM 57.2 °F 55.4 °F 94% 30.05 in 9.0 mi West 5.8 mph - 0.01 in Rain Light Rain
11:54 PM 57.2 °F 53.6 °F 88% 30.07 in 10.0 mi NW 9.2 mph 17.3 mph 0.01 in Rain Light Rain
11:56 PM 55.9 °F 54.0 °F 93% 30.08 in 10.0 mi WNW 8.1 mph 16.1 mph 0.01 in Rain Light Rain